Location: Ch�risy
(50.2331°N, 2.9131°E)
Time: 00:58:51
(UTC+00:00)

Cosmos 2219 - Pass Details

Date: 17 January 2021
Orbit: 834 x 859 km, 71.1° (Epoch: 28 February)

Event Time Altitude Azimuth Distance (km) Brightness Sun altitude
Rises 16:42:52 0° 222° (SW) 3,424 8.0 -4.4°
Reaches altitude 10° 16:45:22 10° 227° (SW) 2,490 7.2 -4.7°
Maximum altitude 16:50:59 55° 305° (NW) 1,022 3.9 -5.5°
Drops below altitude 10° 16:56:37 10° 23° (NNE) 2,492 5.2 -6.3°
Enters shadow 16:58:59 - 28° (NNE) 3,369 5.8 -6.7°
